Year,Month,Day,Hour,Minute,Value (Times are PST for temperature in C)
2008,07,24,00,00,12.10
2008,07,24,00,01,12.10
2008,07,24,00,02,12.10
2008,07,24,00,03,12.10
2008,07,24,00,04,12.00
2008,07,24,00,05,12.00
2008,07,24,00,06,12.00
2008,07,24,00,07,12.00
2008,07,24,00,08,12.00
2008,07,24,00,09,12.00
2008,07,24,00,10,11.90
2008,07,24,00,11,11.90
2008,07,24,00,12,11.90
2008,07,24,00,13,11.90
2008,07,24,00,14,11.90
2008,07,24,00,15,11.80
2008,07,24,00,16,11.80
2008,07,24,00,17,11.80
2008,07,24,00,18,11.80
2008,07,24,00,19,11.80
2008,07,24,00,20,11.80
2008,07,24,00,21,11.80
2008,07,24,00,22,11.80
2008,07,24,00,23,11.80
2008,07,24,00,24,11.80
2008,07,24,00,25,11.80
2008,07,24,00,26,11.80
2008,07,24,00,27,11.80
2008,07,24,00,28,11.70
2008,07,24,00,29,11.70
2008,07,24,00,30,11.70
2008,07,24,00,31,11.70
2008,07,24,00,32,11.70
2008,07,24,00,33,11.60
2008,07,24,00,34,11.60
2008,07,24,00,35,11.60
2008,07,24,00,36,11.60
2008,07,24,00,37,11.60
2008,07,24,00,38,11.60
2008,07,24,00,39,11.60
2008,07,24,00,40,11.60
2008,07,24,00,41,11.60
2008,07,24,00,42,11.60
2008,07,24,00,43,11.60
2008,07,24,00,44,11.60
2008,07,24,00,45,11.50
2008,07,24,00,46,11.40
2008,07,24,00,47,11.40
2008,07,24,00,48,11.40
2008,07,24,00,49,11.40
2008,07,24,00,50,11.40
2008,07,24,00,51,11.40
2008,07,24,00,52,11.40
2008,07,24,00,53,11.40
2008,07,24,00,54,11.40
2008,07,24,00,55,11.40
2008,07,24,00,56,11.30
2008,07,24,00,57,11.30
2008,07,24,00,58,11.30
2008,07,24,00,59,11.30
2008,07,24,01,00,11.30
2008,07,24,01,01,11.30
2008,07,24,01,02,11.30
2008,07,24,01,03,11.20
2008,07,24,01,04,11.20
2008,07,24,01,05,11.20
2008,07,24,01,06,11.20
2008,07,24,01,07,11.20
2008,07,24,01,08,11.20
2008,07,24,01,09,11.20
2008,07,24,01,10,11.10
2008,07,24,01,11,11.10
2008,07,24,01,12,11.10
2008,07,24,01,13,11.10
2008,07,24,01,14,11.10
2008,07,24,01,15,11.10
2008,07,24,01,16,11.10
2008,07,24,01,17,11.10
2008,07,24,01,18,11.10
2008,07,24,01,19,11.00
2008,07,24,01,20,10.90
2008,07,24,01,21,10.90
2008,07,24,01,22,10.90
2008,07,24,01,23,10.90
2008,07,24,01,24,10.90
2008,07,24,01,25,10.90
2008,07,24,01,26,10.90
2008,07,24,01,27,10.90
2008,07,24,01,28,10.90
2008,07,24,01,29,10.90
2008,07,24,01,30,10.90
2008,07,24,01,31,10.90
2008,07,24,01,32,10.80
2008,07,24,01,33,10.80
2008,07,24,01,34,10.80
2008,07,24,01,35,10.80
2008,07,24,01,36,10.80
2008,07,24,01,37,10.80
2008,07,24,01,38,10.70
2008,07,24,01,39,10.70
2008,07,24,01,40,10.70
2008,07,24,01,41,10.70
2008,07,24,01,42,10.70
2008,07,24,01,43,10.70
2008,07,24,01,44,10.70
2008,07,24,01,45,10.70
2008,07,24,01,46,10.70
2008,07,24,01,47,10.60
2008,07,24,01,48,10.60
2008,07,24,01,49,10.60
2008,07,24,01,50,10.60
2008,07,24,01,51,10.60
2008,07,24,01,52,10.60
2008,07,24,01,53,10.60
2008,07,24,01,54,10.60
2008,07,24,01,55,10.60
2008,07,24,01,56,10.60
2008,07,24,01,57,10.60
2008,07,24,01,58,10.60
2008,07,24,01,59,10.60
2008,07,24,02,00,10.60
2008,07,24,02,01,10.60
2008,07,24,02,02,10.60
2008,07,24,02,03,10.60
2008,07,24,02,04,10.50
2008,07,24,02,05,10.40
2008,07,24,02,06,10.40
2008,07,24,02,07,10.40
2008,07,24,02,08,10.40
2008,07,24,02,09,10.40
2008,07,24,02,10,10.40
2008,07,24,02,11,10.40
2008,07,24,02,12,10.40
2008,07,24,02,13,10.40
2008,07,24,02,14,10.40
2008,07,24,02,15,10.40
2008,07,24,02,16,10.40
2008,07,24,02,17,10.40
2008,07,24,02,18,10.40
2008,07,24,02,19,10.40
2008,07,24,02,20,10.30
2008,07,24,02,21,10.30
2008,07,24,02,22,10.30
2008,07,24,02,23,10.30
2008,07,24,02,24,10.30
2008,07,24,02,25,10.20
2008,07,24,02,26,10.20
2008,07,24,02,27,10.20
2008,07,24,02,28,10.20
2008,07,24,02,29,10.10
2008,07,24,02,30,10.10
2008,07,24,02,31,10.10
2008,07,24,02,32,10.10
2008,07,24,02,33,10.10
2008,07,24,02,34,10.00
2008,07,24,02,35,9.90
2008,07,24,02,36,9.90
2008,07,24,02,37,9.90
2008,07,24,02,38,9.90
2008,07,24,02,39,9.90
2008,07,24,02,40,9.90
2008,07,24,02,41,9.80
2008,07,24,02,42,9.80
2008,07,24,02,43,9.80
2008,07,24,02,44,9.70
2008,07,24,02,45,9.70
2008,07,24,02,46,9.70
2008,07,24,02,47,9.70
2008,07,24,02,48,9.70
2008,07,24,02,49,9.70
2008,07,24,02,50,9.60
2008,07,24,02,51,9.60
2008,07,24,02,52,9.60
2008,07,24,02,53,9.60
2008,07,24,02,54,9.60
2008,07,24,02,55,9.60
2008,07,24,02,56,9.50
2008,07,24,02,57,9.50
2008,07,24,02,58,9.50
2008,07,24,02,59,9.50
2008,07,24,03,00,9.40
2008,07,24,03,01,9.40
2008,07,24,03,02,9.40
2008,07,24,03,03,9.40
2008,07,24,03,04,9.40
2008,07,24,03,05,9.30
2008,07,24,03,06,9.30
2008,07,24,03,07,9.30
2008,07,24,03,08,9.30
2008,07,24,03,09,9.20
2008,07,24,03,10,9.20
2008,07,24,03,11,9.20
2008,07,24,03,12,9.20
2008,07,24,03,13,9.20
2008,07,24,03,14,9.20
2008,07,24,03,15,9.20
2008,07,24,03,16,9.20
2008,07,24,03,17,9.20
2008,07,24,03,18,9.20
2008,07,24,03,19,9.20
2008,07,24,03,20,9.20
2008,07,24,03,21,9.20
2008,07,24,03,22,9.20
2008,07,24,03,23,9.20
2008,07,24,03,24,9.20
2008,07,24,03,25,9.20
2008,07,24,03,26,9.20
2008,07,24,03,27,9.20
2008,07,24,03,28,9.20
2008,07,24,03,29,9.10
2008,07,24,03,30,9.10
2008,07,24,03,31,9.10
2008,07,24,03,32,9.10
2008,07,24,03,33,9.10
2008,07,24,03,34,9.10
2008,07,24,03,35,9.10
2008,07,24,03,36,9.10
2008,07,24,03,37,9.10
2008,07,24,03,38,9.10
2008,07,24,03,39,9.10
2008,07,24,03,40,9.10
2008,07,24,03,41,9.00
2008,07,24,03,42,9.00
2008,07,24,03,43,9.00
2008,07,24,03,44,9.00
2008,07,24,03,45,9.00
2008,07,24,03,46,9.00
2008,07,24,03,47,9.00
2008,07,24,03,48,8.90
2008,07,24,03,49,8.90
2008,07,24,03,50,8.90
2008,07,24,03,51,8.90
2008,07,24,03,52,8.90
2008,07,24,03,53,8.80
2008,07,24,03,54,8.80
2008,07,24,03,55,8.80
2008,07,24,03,56,8.80
2008,07,24,03,57,8.80
2008,07,24,03,58,8.70
2008,07,24,03,59,8.70
2008,07,24,04,00,8.70
2008,07,24,04,01,8.70
2008,07,24,04,02,8.70
2008,07,24,04,03,8.70
2008,07,24,04,04,8.70
2008,07,24,04,05,8.70
2008,07,24,04,06,8.70
2008,07,24,04,07,8.70
2008,07,24,04,08,8.70
2008,07,24,04,09,8.70
2008,07,24,04,10,8.80
2008,07,24,04,11,8.80
2008,07,24,04,12,8.80
2008,07,24,04,13,8.80
2008,07,24,04,14,8.80
2008,07,24,04,15,8.80
2008,07,24,04,16,8.80
2008,07,24,04,17,8.70
2008,07,24,04,18,8.70
2008,07,24,04,19,8.70
2008,07,24,04,20,8.70
2008,07,24,04,21,8.70
2008,07,24,04,22,8.70
2008,07,24,04,23,8.70
2008,07,24,04,24,8.70
2008,07,24,04,25,8.70
2008,07,24,04,26,8.70
2008,07,24,04,27,8.70
2008,07,24,04,28,8.70
2008,07,24,04,29,8.70
2008,07,24,04,30,8.70
2008,07,24,04,31,8.70
2008,07,24,04,32,8.70
2008,07,24,04,33,8.70
2008,07,24,04,34,8.70
2008,07,24,04,35,8.70
2008,07,24,04,36,8.70
2008,07,24,04,37,8.70
2008,07,24,04,38,8.70
2008,07,24,04,39,8.70
2008,07,24,04,40,8.70
2008,07,24,04,41,8.70
2008,07,24,04,42,8.70
2008,07,24,04,43,8.70
2008,07,24,04,44,8.70
2008,07,24,04,45,8.70
2008,07,24,04,46,8.70
2008,07,24,04,47,8.70
2008,07,24,04,48,8.70
2008,07,24,04,49,8.70
2008,07,24,04,50,8.60
2008,07,24,04,51,8.60
2008,07,24,04,52,8.60
2008,07,24,04,53,8.60
2008,07,24,04,54,8.60
2008,07,24,04,55,8.50
2008,07,24,04,56,8.50
2008,07,24,04,57,8.50
2008,07,24,04,58,8.50
2008,07,24,04,59,8.50
2008,07,24,05,00,8.50
2008,07,24,05,01,8.50
2008,07,24,05,02,8.50
2008,07,24,05,03,8.50
2008,07,24,05,04,8.50
2008,07,24,05,05,8.50
2008,07,24,05,06,8.50
2008,07,24,05,07,8.50
2008,07,24,05,08,8.50
2008,07,24,05,09,8.50
2008,07,24,05,10,8.50
2008,07,24,05,11,8.50
2008,07,24,05,12,8.40
2008,07,24,05,13,8.40
2008,07,24,05,14,8.40
2008,07,24,05,15,8.50
2008,07,24,05,16,8.50
2008,07,24,05,17,8.50
2008,07,24,05,18,8.50
2008,07,24,05,19,8.50
2008,07,24,05,20,8.50
2008,07,24,05,21,8.50
2008,07,24,05,22,8.60
2008,07,24,05,23,8.60
2008,07,24,05,24,8.70
2008,07,24,05,25,8.70
2008,07,24,05,26,8.70
2008,07,24,05,27,8.70
2008,07,24,05,28,8.70
2008,07,24,05,29,8.70
2008,07,24,05,30,8.70
2008,07,24,05,31,8.70
2008,07,24,05,32,8.70
2008,07,24,05,33,8.70
2008,07,24,05,34,8.70
2008,07,24,05,35,8.70
2008,07,24,05,36,8.70
2008,07,24,05,37,8.60
2008,07,24,05,38,8.60
2008,07,24,05,39,8.60
2008,07,24,05,40,8.60
2008,07,24,05,41,8.60
2008,07,24,05,42,8.60
2008,07,24,05,43,8.60
2008,07,24,05,44,8.60
2008,07,24,05,45,8.60
2008,07,24,05,46,8.50
2008,07,24,05,47,8.50
2008,07,24,05,48,8.50
2008,07,24,05,49,8.50
2008,07,24,05,50,8.50
2008,07,24,05,51,8.50
2008,07,24,05,52,8.50
2008,07,24,05,53,8.50
2008,07,24,05,54,8.50
2008,07,24,05,55,8.60
2008,07,24,05,56,8.60
2008,07,24,05,57,8.70
2008,07,24,05,58,8.70
2008,07,24,05,59,8.70
2008,07,24,06,00,8.80
2008,07,24,06,01,8.90
2008,07,24,06,02,8.90
2008,07,24,06,03,8.90
2008,07,24,06,04,8.90
2008,07,24,06,05,8.90
2008,07,24,06,06,8.90
2008,07,24,06,07,8.90
2008,07,24,06,08,8.90
2008,07,24,06,09,8.90
2008,07,24,06,10,8.80
2008,07,24,06,11,8.80
2008,07,24,06,12,8.80
2008,07,24,06,13,8.80
2008,07,24,06,14,8.90
2008,07,24,06,15,8.90
2008,07,24,06,16,8.90
2008,07,24,06,17,8.90
2008,07,24,06,18,8.90
2008,07,24,06,19,8.90
2008,07,24,06,20,9.00
2008,07,24,06,21,9.00
2008,07,24,06,22,9.10
2008,07,24,06,23,9.20
2008,07,24,06,24,9.20
2008,07,24,06,25,9.20
2008,07,24,06,26,9.20
2008,07,24,06,27,9.20
2008,07,24,06,28,9.20
2008,07,24,06,29,9.20
2008,07,24,06,30,9.20
2008,07,24,06,31,9.20
2008,07,24,06,32,9.30
2008,07,24,06,33,9.30
2008,07,24,06,34,9.40
2008,07,24,06,35,9.40
2008,07,24,06,36,9.50
2008,07,24,06,37,9.50
2008,07,24,06,38,9.60
2008,07,24,06,39,9.60
2008,07,24,06,40,9.70
2008,07,24,06,41,9.70
2008,07,24,06,42,9.70
2008,07,24,06,43,9.70
2008,07,24,06,44,9.70
2008,07,24,06,45,9.80
2008,07,24,06,46,9.80
2008,07,24,06,47,9.90
2008,07,24,06,48,9.90
2008,07,24,06,49,10.00
2008,07,24,06,50,10.10
2008,07,24,06,51,10.20
2008,07,24,06,52,10.20
2008,07,24,06,53,10.30
2008,07,24,06,54,10.40
2008,07,24,06,55,10.40
2008,07,24,06,56,10.40
2008,07,24,06,57,10.50
2008,07,24,06,58,10.60
2008,07,24,06,59,10.60
2008,07,24,07,00,10.60
2008,07,24,07,01,10.70
2008,07,24,07,02,10.80
2008,07,24,07,03,10.80
2008,07,24,07,04,10.90
2008,07,24,07,05,10.90
2008,07,24,07,06,10.90
2008,07,24,07,07,11.00
2008,07,24,07,08,11.10
2008,07,24,07,09,11.20
2008,07,24,07,10,11.20
2008,07,24,07,11,11.30
2008,07,24,07,12,11.40
2008,07,24,07,13,11.40
2008,07,24,07,14,11.40
2008,07,24,07,15,11.40
2008,07,24,07,16,11.40
2008,07,24,07,17,11.40
2008,07,24,07,18,11.40
2008,07,24,07,19,11.50
2008,07,24,07,20,11.60
2008,07,24,07,21,11.70
2008,07,24,07,22,11.80
2008,07,24,07,23,11.90
2008,07,24,07,24,11.90
2008,07,24,07,25,12.00
2008,07,24,07,26,12.10
2008,07,24,07,27,12.20
2008,07,24,07,28,12.30
2008,07,24,07,29,12.40
2008,07,24,07,30,12.40
2008,07,24,07,31,12.40
2008,07,24,07,32,12.50
2008,07,24,07,33,12.50
2008,07,24,07,34,12.60
2008,07,24,07,35,12.60
2008,07,24,07,36,12.70
2008,07,24,07,37,12.80
2008,07,24,07,38,12.80
2008,07,24,07,39,12.80
2008,07,24,07,40,12.80
2008,07,24,07,41,12.80
2008,07,24,07,42,12.80
2008,07,24,07,43,12.80
2008,07,24,07,44,12.80
2008,07,24,07,45,12.90
2008,07,24,07,46,13.00
2008,07,24,07,47,13.00
2008,07,24,07,48,13.10
2008,07,24,07,49,13.20
2008,07,24,07,50,13.20
2008,07,24,07,51,13.30
2008,07,24,07,52,13.30
2008,07,24,07,53,13.40
2008,07,24,07,54,13.50
2008,07,24,07,55,13.50
2008,07,24,07,56,13.60
2008,07,24,07,57,13.60
2008,07,24,07,58,13.70
2008,07,24,07,59,13.70
2008,07,24,08,00,13.80
2008,07,24,08,01,13.80
2008,07,24,08,02,13.90
2008,07,24,08,03,14.00
2008,07,24,08,04,14.00
2008,07,24,08,05,14.00
2008,07,24,08,06,14.10
2008,07,24,08,07,14.10
2008,07,24,08,08,14.10
2008,07,24,08,09,14.20
2008,07,24,08,10,14.20
2008,07,24,08,11,14.20
2008,07,24,08,12,14.20
2008,07,24,08,13,14.20
2008,07,24,08,14,14.30
2008,07,24,08,15,14.40
2008,07,24,08,16,14.40
2008,07,24,08,17,14.50
2008,07,24,08,18,14.50
2008,07,24,08,19,14.50
2008,07,24,08,20,14.60
2008,07,24,08,21,14.70
2008,07,24,08,22,14.70
2008,07,24,08,23,14.70
2008,07,24,08,24,14.70
2008,07,24,08,25,14.80
2008,07,24,08,26,14.80
2008,07,24,08,27,14.80
2008,07,24,08,28,14.80
2008,07,24,08,29,14.80
2008,07,24,08,30,14.80
2008,07,24,08,31,14.80
2008,07,24,08,32,14.90
2008,07,24,08,33,14.90
2008,07,24,08,34,15.00
2008,07,24,08,35,15.10
2008,07,24,08,36,15.10
2008,07,24,08,37,15.20
2008,07,24,08,38,15.20
2008,07,24,08,39,15.30
2008,07,24,08,40,15.30
2008,07,24,08,41,15.30
2008,07,24,08,42,15.20
2008,07,24,08,43,15.20
2008,07,24,08,44,15.20
2008,07,24,08,45,15.30
2008,07,24,08,46,15.30
2008,07,24,08,47,15.30
2008,07,24,08,48,15.30
2008,07,24,08,49,15.30
2008,07,24,08,50,15.30
2008,07,24,08,51,15.30
2008,07,24,08,52,15.30
2008,07,24,08,53,15.30
2008,07,24,08,54,15.20
2008,07,24,08,55,15.30
2008,07,24,08,56,15.30
2008,07,24,08,57,15.30
2008,07,24,08,58,15.40
2008,07,24,08,59,15.50
2008,07,24,09,00,15.50
2008,07,24,09,01,15.60
2008,07,24,09,02,15.60
2008,07,24,09,03,15.70
2008,07,24,09,04,15.80
2008,07,24,09,05,15.90
2008,07,24,09,06,16.00
2008,07,24,09,07,16.10
2008,07,24,09,08,16.10
2008,07,24,09,09,16.10
2008,07,24,09,10,16.10
2008,07,24,09,11,16.10
2008,07,24,09,12,16.10
2008,07,24,09,13,16.10
2008,07,24,09,14,16.10
2008,07,24,09,15,16.10
2008,07,24,09,16,16.10
2008,07,24,09,17,16.10
2008,07,24,09,18,16.10
2008,07,24,09,19,16.10
2008,07,24,09,20,16.10
2008,07,24,09,21,16.10
2008,07,24,09,22,16.10
2008,07,24,09,23,16.10
2008,07,24,09,24,16.10
2008,07,24,09,25,16.10
2008,07,24,09,26,16.10
2008,07,24,09,27,16.10
2008,07,24,09,28,16.10
2008,07,24,09,29,16.10
2008,07,24,09,30,16.10
2008,07,24,09,31,16.10
2008,07,24,09,32,16.20
2008,07,24,09,33,16.20
2008,07,24,09,34,16.30
2008,07,24,09,35,16.40
2008,07,24,09,36,16.40
2008,07,24,09,37,16.40
2008,07,24,09,38,16.50
2008,07,24,09,39,16.60
2008,07,24,09,40,16.70
2008,07,24,09,41,16.70
2008,07,24,09,42,16.80
2008,07,24,09,43,16.90
2008,07,24,09,44,16.90
2008,07,24,09,45,16.90
2008,07,24,09,46,17.00
2008,07,24,09,47,17.00
2008,07,24,09,48,17.10
2008,07,24,09,49,17.20
2008,07,24,09,50,17.20
2008,07,24,09,51,17.30
2008,07,24,09,52,17.30
2008,07,24,09,53,17.30
2008,07,24,09,54,17.20
2008,07,24,09,55,17.10
2008,07,24,09,56,17.10
2008,07,24,09,57,17.20
2008,07,24,09,58,17.20
2008,07,24,09,59,17.20
2008,07,24,10,00,17.20
2008,07,24,10,01,17.20
2008,07,24,10,02,17.30
2008,07,24,10,03,17.30
2008,07,24,10,04,17.30
2008,07,24,10,05,17.30
2008,07,24,10,06,17.30
2008,07,24,10,07,17.30
2008,07,24,10,08,17.30
2008,07,24,10,09,17.40
2008,07,24,10,10,17.40
2008,07,24,10,11,17.50
2008,07,24,10,12,17.60
2008,07,24,10,13,17.50
2008,07,24,10,14,17.50
2008,07,24,10,15,17.50
2008,07,24,10,16,17.40
2008,07,24,10,17,17.30
2008,07,24,10,18,17.30
2008,07,24,10,19,17.30
2008,07,24,10,20,17.30
2008,07,24,10,21,17.30
2008,07,24,10,22,17.30
2008,07,24,10,23,17.30
2008,07,24,10,24,17.30
2008,07,24,10,25,17.30
2008,07,24,10,26,17.40
2008,07,24,10,27,17.50
2008,07,24,10,28,17.50
2008,07,24,10,29,17.50
2008,07,24,10,30,17.60
2008,07,24,10,31,17.70
2008,07,24,10,32,17.70
2008,07,24,10,33,17.70
2008,07,24,10,34,17.70
2008,07,24,10,35,17.70
2008,07,24,10,36,17.70
2008,07,24,10,37,17.70
2008,07,24,10,38,17.80
2008,07,24,10,39,17.80
2008,07,24,10,40,17.80
2008,07,24,10,41,17.80
2008,07,24,10,42,17.80
2008,07,24,10,43,17.80
2008,07,24,10,44,17.80
2008,07,24,10,45,17.90
2008,07,24,10,46,17.90
2008,07,24,10,47,17.90
2008,07,24,10,48,17.90
2008,07,24,10,49,17.90
2008,07,24,10,50,17.90
2008,07,24,10,51,17.90
2008,07,24,10,52,17.90
2008,07,24,10,53,17.90
2008,07,24,10,54,18.00
2008,07,24,10,55,18.10
2008,07,24,10,56,18.10
2008,07,24,10,57,18.00
2008,07,24,10,58,17.90
2008,07,24,10,59,17.90
2008,07,24,11,00,17.90
2008,07,24,11,01,17.90
2008,07,24,11,02,18.00
2008,07,24,11,03,18.10
2008,07,24,11,04,18.10
2008,07,24,11,05,18.10
2008,07,24,11,06,18.10
2008,07,24,11,07,18.10
2008,07,24,11,08,18.20
2008,07,24,11,09,18.20
2008,07,24,11,10,18.30
2008,07,24,11,11,18.40
2008,07,24,11,12,18.50
2008,07,24,11,13,18.60
2008,07,24,11,14,18.70
2008,07,24,11,15,18.70
2008,07,24,11,16,18.60
2008,07,24,11,17,18.60
2008,07,24,11,18,18.60
2008,07,24,11,19,18.70
2008,07,24,11,20,18.70
2008,07,24,11,21,18.70
2008,07,24,11,22,18.70
2008,07,24,11,23,18.80
2008,07,24,11,24,18.90
2008,07,24,11,25,19.00
2008,07,24,11,26,19.10
2008,07,24,11,27,19.30
2008,07,24,11,28,19.40
2008,07,24,11,29,19.50
2008,07,24,11,30,19.60
2008,07,24,11,31,19.60
2008,07,24,11,32,19.60
2008,07,24,11,33,19.60
2008,07,24,11,34,19.60
2008,07,24,11,35,19.60
2008,07,24,11,36,19.40
2008,07,24,11,37,19.30
2008,07,24,11,38,19.20
2008,07,24,11,39,19.20
2008,07,24,11,40,19.30
2008,07,24,11,41,19.30
2008,07,24,11,42,19.40
2008,07,24,11,43,19.50
2008,07,24,11,44,19.60
2008,07,24,11,45,19.70
2008,07,24,11,46,19.80
2008,07,24,11,47,19.90
2008,07,24,11,48,19.90
2008,07,24,11,49,20.00
2008,07,24,11,50,20.10
2008,07,24,11,51,20.20
2008,07,24,11,52,20.20
2008,07,24,11,53,20.20
2008,07,24,11,54,20.20
2008,07,24,11,55,20.20
2008,07,24,11,56,20.10
2008,07,24,11,57,20.10
2008,07,24,11,58,20.10
2008,07,24,11,59,20.20
2008,07,24,12,00,20.20
2008,07,24,12,01,20.10
2008,07,24,12,02,20.10
2008,07,24,12,03,20.10
2008,07,24,12,04,20.20
2008,07,24,12,05,20.20
2008,07,24,12,06,20.20
2008,07,24,12,07,20.20
2008,07,24,12,08,20.20
2008,07,24,12,09,20.20
2008,07,24,12,10,20.10
2008,07,24,12,11,20.10
2008,07,24,12,12,20.10
2008,07,24,12,13,20.10
2008,07,24,12,14,20.20
2008,07,24,12,15,20.20
2008,07,24,12,16,20.10
2008,07,24,12,17,20.10
2008,07,24,12,18,20.20
2008,07,24,12,19,20.20
2008,07,24,12,20,20.20
2008,07,24,12,21,20.20
2008,07,24,12,22,20.30
2008,07,24,12,23,20.40
2008,07,24,12,24,20.50
2008,07,24,12,25,20.50
2008,07,24,12,26,20.50
2008,07,24,12,27,20.40
2008,07,24,12,28,20.30
2008,07,24,12,29,20.30
2008,07,24,12,30,20.20
2008,07,24,12,31,20.20
2008,07,24,12,32,20.20
2008,07,24,12,33,20.30
2008,07,24,12,34,20.30
2008,07,24,12,35,20.40
2008,07,24,12,36,20.40
2008,07,24,12,37,20.40
2008,07,24,12,38,20.40
2008,07,24,12,39,20.50
2008,07,24,12,40,20.60
2008,07,24,12,41,20.60
2008,07,24,12,42,20.70
2008,07,24,12,43,20.80
2008,07,24,12,44,20.80
2008,07,24,12,45,20.80
2008,07,24,12,46,20.80
2008,07,24,12,47,20.90
2008,07,24,12,48,20.90
2008,07,24,12,49,21.00
2008,07,24,12,50,20.90
2008,07,24,12,51,20.90
2008,07,24,12,52,20.90
2008,07,24,12,53,20.90
2008,07,24,12,54,20.80
2008,07,24,12,55,20.70
2008,07,24,12,56,20.70
2008,07,24,12,57,20.70
2008,07,24,12,58,20.80
2008,07,24,12,59,20.90
2008,07,24,13,00,21.00
2008,07,24,13,01,21.10
2008,07,24,13,02,21.20
2008,07,24,13,03,21.20
2008,07,24,13,04,21.20
2008,07,24,13,05,21.20
2008,07,24,13,06,21.20
2008,07,24,13,07,21.30
2008,07,24,13,08,21.30
2008,07,24,13,09,21.30
2008,07,24,13,10,21.30
2008,07,24,13,11,21.30
2008,07,24,13,12,21.50
2008,07,24,13,13,21.60
2008,07,24,13,14,21.60
2008,07,24,13,15,21.70
2008,07,24,13,16,21.80
2008,07,24,13,17,21.80
2008,07,24,13,18,21.90
2008,07,24,13,19,21.90
2008,07,24,13,20,22.00
2008,07,24,13,21,22.00
2008,07,24,13,22,22.00
2008,07,24,13,23,21.90
2008,07,24,13,24,21.90
2008,07,24,13,25,21.90
2008,07,24,13,26,21.80
2008,07,24,13,27,21.70
2008,07,24,13,28,21.70
2008,07,24,13,29,21.60
2008,07,24,13,30,21.60
2008,07,24,13,31,21.60
2008,07,24,13,32,21.60
2008,07,24,13,33,21.40
2008,07,24,13,34,21.30
2008,07,24,13,35,21.30
2008,07,24,13,36,21.30
2008,07,24,13,37,21.40
2008,07,24,13,38,21.40
2008,07,24,13,39,21.50
2008,07,24,13,40,21.60
2008,07,24,13,41,21.60
2008,07,24,13,42,21.70
2008,07,24,13,43,21.80
2008,07,24,13,44,21.90
2008,07,24,13,45,21.90
2008,07,24,13,46,22.00
2008,07,24,13,47,22.00
2008,07,24,13,48,22.00
2008,07,24,13,49,22.00
2008,07,24,13,50,22.10
2008,07,24,13,51,22.10
2008,07,24,13,52,22.00
2008,07,24,13,53,21.90
2008,07,24,13,54,21.80
2008,07,24,13,55,21.80
2008,07,24,13,56,21.80
2008,07,24,13,57,21.80
2008,07,24,13,58,21.80
2008,07,24,13,59,21.90
2008,07,24,14,00,21.90
2008,07,24,14,01,21.80
2008,07,24,14,02,21.80
2008,07,24,14,03,21.70
2008,07,24,14,04,21.60
2008,07,24,14,05,21.60
2008,07,24,14,06,21.60
2008,07,24,14,07,21.60
2008,07,24,14,08,21.60
2008,07,24,14,09,21.60
2008,07,24,14,10,21.60
2008,07,24,14,11,21.60
2008,07,24,14,12,21.60
2008,07,24,14,13,21.60
2008,07,24,14,14,21.60
2008,07,24,14,15,21.60
2008,07,24,14,16,21.60
2008,07,24,14,17,21.70
2008,07,24,14,18,21.80
2008,07,24,14,19,21.80
2008,07,24,14,20,21.90
2008,07,24,14,21,21.90
2008,07,24,14,22,21.90
2008,07,24,14,23,21.80
2008,07,24,14,24,21.80
2008,07,24,14,25,21.70
2008,07,24,14,26,21.70
2008,07,24,14,27,21.70
2008,07,24,14,28,21.60
2008,07,24,14,29,21.60
2008,07,24,14,30,21.60
2008,07,24,14,31,21.60
2008,07,24,14,32,21.60
2008,07,24,14,33,21.60
2008,07,24,14,34,21.60
2008,07,24,14,35,21.60
2008,07,24,14,36,21.60
2008,07,24,14,37,21.60
2008,07,24,14,38,21.60
2008,07,24,14,39,21.60
2008,07,24,14,40,21.60
2008,07,24,14,41,21.60
2008,07,24,14,42,21.70
2008,07,24,14,43,21.80
2008,07,24,14,44,21.90
2008,07,24,14,45,22.10
2008,07,24,14,46,22.20
2008,07,24,14,47,22.30
2008,07,24,14,48,22.40
2008,07,24,14,49,22.40
2008,07,24,14,50,22.40
2008,07,24,14,51,22.30
2008,07,24,14,52,22.30
2008,07,24,14,53,22.10
2008,07,24,14,54,22.10
2008,07,24,14,55,22.00
2008,07,24,14,56,22.10
2008,07,24,14,57,22.10
2008,07,24,14,58,22.20
2008,07,24,14,59,22.20
2008,07,24,15,00,22.30
2008,07,24,15,01,22.40
2008,07,24,15,02,22.40
2008,07,24,15,03,22.40
2008,07,24,15,04,22.40
2008,07,24,15,05,22.50
2008,07,24,15,06,22.60
2008,07,24,15,07,22.60
2008,07,24,15,08,22.60
2008,07,24,15,09,22.50
2008,07,24,15,10,22.40
2008,07,24,15,11,22.20
2008,07,24,15,12,22.00
2008,07,24,15,13,21.80
2008,07,24,15,14,21.80
2008,07,24,15,15,21.80
2008,07,24,15,16,21.80
2008,07,24,15,17,21.80
2008,07,24,15,18,21.90
2008,07,24,15,19,22.00
2008,07,24,15,20,22.10
2008,07,24,15,21,22.10
2008,07,24,15,22,22.10
2008,07,24,15,23,22.10
2008,07,24,15,24,22.00
2008,07,24,15,25,22.00
2008,07,24,15,26,22.10
2008,07,24,15,27,22.30
2008,07,24,15,28,22.20
2008,07,24,15,29,22.10
2008,07,24,15,30,22.20
2008,07,24,15,31,22.10
2008,07,24,15,32,22.10
2008,07,24,15,33,22.10
2008,07,24,15,34,22.00
2008,07,24,15,35,22.10
2008,07,24,15,36,22.20
2008,07,24,15,37,22.30
2008,07,24,15,38,22.40
2008,07,24,15,39,22.60
2008,07,24,15,40,22.80
2008,07,24,15,41,22.80
2008,07,24,15,42,22.90
2008,07,24,15,43,22.90
2008,07,24,15,44,22.90
2008,07,24,15,45,22.70
2008,07,24,15,46,22.50
2008,07,24,15,47,22.20
2008,07,24,15,48,22.00
2008,07,24,15,49,21.90
2008,07,24,15,50,21.80
2008,07,24,15,51,21.60
2008,07,24,15,52,21.50
2008,07,24,15,53,21.40
2008,07,24,15,54,21.30
2008,07,24,15,55,21.20
2008,07,24,15,56,21.20
2008,07,24,15,57,21.30
2008,07,24,15,58,21.30
2008,07,24,15,59,21.30
2008,07,24,16,00,21.30
2008,07,24,16,01,21.30
2008,07,24,16,02,21.30
2008,07,24,16,03,21.20
2008,07,24,16,04,21.00
2008,07,24,16,05,20.90
2008,07,24,16,06,20.90
2008,07,24,16,07,21.00
2008,07,24,16,08,21.00
2008,07,24,16,09,21.00
2008,07,24,16,10,21.00
2008,07,24,16,11,21.10
2008,07,24,16,12,21.10
2008,07,24,16,13,21.00
2008,07,24,16,14,20.90
2008,07,24,16,15,20.90
2008,07,24,16,16,20.90
2008,07,24,16,17,20.80
2008,07,24,16,18,20.80
2008,07,24,16,19,20.80
2008,07,24,16,20,20.90
2008,07,24,16,21,20.90
2008,07,24,16,22,20.90
2008,07,24,16,23,20.80
2008,07,24,16,24,20.90
2008,07,24,16,25,20.90
2008,07,24,16,26,21.00
2008,07,24,16,27,21.10
2008,07,24,16,28,21.20
2008,07,24,16,29,21.30
2008,07,24,16,30,21.30
2008,07,24,16,31,21.40
2008,07,24,16,32,21.50
2008,07,24,16,33,21.50
2008,07,24,16,34,21.40
2008,07,24,16,35,21.50
2008,07,24,16,36,21.60
2008,07,24,16,37,21.60
2008,07,24,16,38,21.70
2008,07,24,16,39,21.70
2008,07,24,16,40,21.80
2008,07,24,16,41,21.90
2008,07,24,16,42,21.90
2008,07,24,16,43,21.90
2008,07,24,16,44,21.80
2008,07,24,16,45,21.70
2008,07,24,16,46,21.80
2008,07,24,16,47,21.90
2008,07,24,16,48,21.90
2008,07,24,16,49,21.90
2008,07,24,16,50,21.90
2008,07,24,16,51,22.00
2008,07,24,16,52,22.00
2008,07,24,16,53,21.90
2008,07,24,16,54,21.80
2008,07,24,16,55,21.70
2008,07,24,16,56,21.60
2008,07,24,16,57,21.60
2008,07,24,16,58,21.60
2008,07,24,16,59,21.60
2008,07,24,17,00,21.60
2008,07,24,17,01,21.60
2008,07,24,17,02,21.50
2008,07,24,17,03,21.40
2008,07,24,17,04,21.30
2008,07,24,17,05,21.10
2008,07,24,17,06,21.00
2008,07,24,17,07,20.80
2008,07,24,17,08,20.70
2008,07,24,17,09,20.70
2008,07,24,17,10,20.70
2008,07,24,17,11,20.60
2008,07,24,17,12,20.60
2008,07,24,17,13,20.50
2008,07,24,17,14,20.50
2008,07,24,17,15,20.40
2008,07,24,17,16,20.40
2008,07,24,17,17,20.40
2008,07,24,17,18,20.40
2008,07,24,17,19,20.50
2008,07,24,17,20,20.70
2008,07,24,17,21,20.80
2008,07,24,17,22,20.90
2008,07,24,17,23,21.00
2008,07,24,17,24,21.00
2008,07,24,17,25,21.00
2008,07,24,17,26,21.00
2008,07,24,17,27,21.00
2008,07,24,17,28,21.10
2008,07,24,17,29,21.20
2008,07,24,17,30,21.10